QPF
0.00 0.00 0.00 0.00 0.00 0.00 0.00 0.00 0.00 0.00 0.00 0.00 0.00 0.00 0.00 0.00 0.00 0.00 0.00 0.00 0.00 0.00 0.00 0.00 0.00 0.00 0.00 0.00 0.01 0.01 0.34 0.25 0.01 0.01 0.00 0.00 0.00 0.00 0.00 0.00 0.00 0.00 0.00 0.00 0.00
0.00 0.00 0.00 0.00 0.00 0.00 0.00 0.00 0.00 0.00 0.00 0.00 0.00 0.00 0.00 0.00 0.00 0.00 0.00 0.00 0.00 0.00 0.00 0.00 0.00 0.00 0.00 0.00 0.00 0.02 0.21 0.12 0.01 0.00 0.00 0.00 0.00 0.00 0.00 0.00 0.00 0.00 0.00 0.00 0.00
0.00 0.00 0.00 0.00 0.00 0.00 0.00 0.00 0.00 0.00 0.00 0.00 0.00 0.00 0.00 0.00 0.00 0.00 0.00 0.00 0.00 0.00 0.00 0.00 0.00 0.00 0.00 0.00 0.00 0.00 0.03 0.07 0.02 0.01 0.00 0.00 0.00 0.00 0.00 0.00 0.00 0.00 0.00 0.00 0.00
0.00 0.00 0.00 0.00 0.00 0.00 0.00 0.01 0.00 0.00 0.00 0.00 0.00 0.00 0.00 0.00 0.00 0.00 0.00 0.00 0.00 0.00 0.00 0.00 0.00 0.00 0.00 0.00 0.00 0.00 0.03 0.03 0.04 0.00 0.00 0.02 0.02 0.00 0.00 0.00 0.00 0.00 0.00 0.00 0.00
0.00 0.00 0.00 0.00 0.00 0.00 0.00 0.00 0.00 0.00 0.00 0.00 0.00 0.00 0.00 0.00 0.00 0.00 0.00 0.00 0.00 0.00 0.00 0.00 0.00 0.00 0.00 0.00 0.00 0.00 0.07 0.04 0.05 0.05 0.04 0.01 0.01 0.00 0.00 0.00 0.00 0.00 0.00 0.00 0.00
0.00 0.00 0.00 0.00 0.00 0.00 0.00 0.00 0.00 0.00 0.00 0.00 0.00 0.00 0.00 0.00 0.00 0.00 0.00 0.00 0.00 0.00 0.00 0.00 0.00 0.00 0.00 0.00 0.00 0.00 0.00 0.00 0.01 0.14 0.11 0.04 0.01 0.00 0.00 0.00 0.00 0.00 0.00 0.00 0.00
0.00 0.00 0.00 0.00 0.00 0.00 0.00 0.00 0.00 0.00 0.00 0.00 0.00 0.00 0.00 0.00 0.00 0.00 0.00 0.00 0.00 0.00 0.00 0.00 0.00 0.00 0.00 0.00 0.00 0.00 0.00 0.00 0.01 0.10 0.12 0.01 0.00 0.00 0.00 0.00 0.00 0.00 0.00 0.00 0.00
0.00 0.00 0.00 0.00 0.00 0.00 0.00 0.00 0.00 0.00 0.00 0.00 0.00 0.00 0.00 0.00 0.00 0.00 0.00 0.00 0.00 0.00 0.00 0.00 0.00 0.00 0.00 0.00 0.00 0.00 0.00 0.00 0.00 0.00 0.02 0.01 0.02 0.00 0.00 0.00 0.00 0.00 0.00 0.00 0.00
0.00 0.00 0.00 0.00 0.00 0.00 0.00 0.00 0.00 0.00 0.00 0.00 0.00 0.00 0.00 0.00 0.00 0.00 0.00 0.00 0.00 0.00 0.00 0.00 0.00 0.00 0.00 0.00 0.00 0.00 0.00 0.00 0.00 0.00 0.00 0.00 0.01 0.00 0.00 0.00 0.00 0.00 0.00 0.00 0.00
0.00 0.00 0.00 0.00 0.00 0.00 0.00 0.00 0.00 0.00 0.00 0.00 0.00 0.00 0.00 0.00 0.00 0.00 0.00 0.00 0.00 0.00 0.00 0.00 0.00 0.00 0.00 0.00 0.00 0.00 0.00 0.00 0.00 0.00 0.00 0.00 0.00 0.00 0.00 0.00 0.00 0.00 0.00 0.00 0.00
0.00 0.00 0.00 0.00 0.00 0.00 0.00 0.00 0.00 0.00 0.00 0.00 0.00 0.00 0.00 0.00 0.00 0.00 0.00 0.00 0.00 0.00 0.00 0.00 0.00 0.00 0.00 0.00 0.00 0.00 0.00 0.00 0.00 0.00 0.00 0.00 0.00 0.00 0.00 0.00 0.00 0.00 0.00 0.00 0.00
0.00 0.00 0.00 0.00 0.00 0.00 0.00 0.00 0.00 0.00 0.00 0.00 0.00 0.00 0.00 0.00 0.00 0.00 0.00 0.00 0.00 0.00 0.00 0.00 0.00 0.00 0.00 0.00 0.00 0.00 0.00 0.00 0.00 0.00 0.00 0.00 0.00 0.00 0.00 0.00 0.00 0.00 0.00 0.00 0.00
0.00 0.00 0.00 0.00 0.00 0.00 0.00 0.00 0.00 0.00 0.00 0.00 0.00 0.00 0.00 0.00 0.00 0.00 0.00 0.00 0.00 0.00 0.00 0.00 0.00 0.00 0.00 0.00 0.00 0.00 0.00 0.00 0.00 0.01 0.03 0.00 0.00 0.00 0.00 0.00 0.00 0.00 0.00 0.00 0.00
0.00 0.00 0.00 0.00 0.00 0.00 0.00 0.00 0.00 0.00 0.00 0.00 0.00 0.00 0.00 0.00 0.00 0.00 0.00 0.00 0.00 0.00 0.00 0.00 0.00 0.00 0.00 0.00 0.00 0.00 0.00 0.00 0.00 0.01 0.01 0.00 0.00 0.00 0.00 0.00 0.00 0.00 0.00 0.00 0.00
0.00 0.00 0.00 0.00 0.00 0.00 0.00 0.00 0.00 0.00 0.00 0.00 0.00 0.00 0.00 0.00 0.00 0.00 0.00 0.00 0.00 0.00 0.00 0.00 0.00 0.00 0.00 0.00 0.00 0.00 0.00 0.00 0.05 0.13 0.04 0.00 0.00 0.00 0.00 0.00 0.00 0.00 0.00 0.00 0.00
0.00 0.00 0.00 0.00 0.00 0.00 0.00 0.00 0.00 0.00 0.00 0.00 0.00 0.00 0.00 0.00 0.00 0.00 0.00 0.00 0.00 0.00 0.00 0.00 0.00 0.00 0.00 0.00 0.00 0.00 0.00 0.00 0.05 0.03 0.01 0.00 0.00 0.00 0.00 0.00 0.00 0.00 0.00 0.00 0.00
0.00 0.00 0.00 0.00 0.00 0.00 0.00 0.00 0.00 0.00 0.00 0.00 0.00 0.00 0.00 0.00 0.00 0.00 0.00 0.00 0.00 0.00 0.00 0.00 0.00 0.00 0.00 0.00 0.00 0.00 0.00 0.00 0.01 0.00 0.00 0.00 0.00 0.00 0.00 0.00 0.00 0.00 0.00 0.00 0.00
0.00 0.00 0.00 0.00 0.00 0.00 0.00 0.00 0.00 0.00 0.00 0.00 0.00 0.00 0.00 0.00 0.00 0.00 0.00 0.00 0.00 0.00 0.00 0.00 0.00 0.00 0.00 0.00 0.00 0.00 0.00 0.00 0.00 0.00 0.00 0.00 0.00 0.00 0.00 0.00 0.00 0.00 0.00 0.00 0.00
0.00 0.00 0.00 0.00 0.00 0.00 0.00 0.00 0.00 0.00 0.00 0.00 0.00 0.00 0.00 0.00 0.00 0.00 0.00 0.00 0.00 0.00 0.00 0.00 0.00 0.00 0.00 0.00 0.00 0.00 0.00 0.00 0.00 0.00 0.00 0.00 0.00 0.00 0.00 0.00 0.00 0.00 0.00 0.00 0.00
0.00 0.00 0.00 0.00 0.00 0.00 0.00 0.00 0.00 0.00 0.00 0.00 0.00 0.00 0.00 0.00 0.00 0.00 0.00 0.00 0.00 0.00 0.00 0.00 0.00 0.00 0.00 0.00 0.00 0.00 0.00 0.00 0.00 0.00 0.00 0.00 0.00 0.00 0.00 0.00 0.00 0.00 0.00 0.00 0.00
0.00 0.00 0.00 0.00 0.00 0.00 0.00 0.00 0.00 0.00 0.00 0.00 0.00 0.00 0.00 0.00 0.00 0.00 0.00 0.00 0.00 0.00 0.00 0.00 0.00 0.00 0.00 0.00 0.00 0.00 0.00 0.00 0.00 0.00 0.00 0.00 0.00 0.00 0.00 0.00 0.00 0.00 0.00 0.00 0.00
0.00 0.00 0.00 0.00 0.00 0.00 0.00 0.00 0.00 0.00 0.00 0.00 0.00 0.00 0.00 0.00 0.00 0.00 0.00 0.00 0.00 0.00 0.00 0.00 0.00 0.00 0.00 0.00 0.00 0.00 0.00 0.00 0.00 0.00 0.00 0.00 0.00 0.00 0.00 0.00 0.00 0.00 0.00 0.00 0.00
0.00 0.00 0.00 0.00 0.00 0.00 0.00 0.00 0.00 0.00 0.00 0.00 0.00 0.00 0.00 0.00 0.00 0.00 0.00 0.00 0.00 0.00 0.00 0.00 0.00 0.00 0.00 0.00 0.00 0.00 0.00 0.00 0.00 0.00 0.00 0.00 0.00 0.00 0.00 0.00 0.00 0.00 0.00 0.00 0.00
0.00 0.00 0.00 0.00 0.00 0.00 0.00 0.00 0.00 0.00 0.00 0.00 0.00 0.00 0.00 0.00 0.00 0.00 0.00 0.00 0.00 0.00 0.00 0.00 0.00 0.00 0.00 0.00 0.00 0.00 0.00 0.00 0.00 0.00 0.00 0.00 0.00 0.00 0.00 0.00 0.00 0.00 0.00 0.00 0.00
0.00 0.00 0.00 0.00 0.00 0.00 0.00 0.00 0.00 0.00 0.00 0.00 0.00 0.00 0.00 0.00 0.00 0.00 0.00 0.00 0.00 0.00 0.00 0.00 0.00 0.00 0.00 0.00 0.00 0.00 0.00 0.00 0.00 0.00 0.00 0.00 0.00 0.00 0.00 0.00 0.00 0.00 0.00 0.00 0.00
0.00 0.00 0.00 0.00 0.00 0.00 0.00 0.00 0.00 0.00 0.00 0.00 0.00 0.00 0.00 0.00 0.00 0.00 0.00 0.00 0.00 0.00 0.00 0.00 0.00 0.00 0.00 0.00 0.00 0.00 0.00 0.00 0.00 0.00 0.00 0.00 0.00 0.00 0.00 0.00 0.00 0.00 0.00 0.00 0.00
0.00 0.00 0.00 0.00 0.00 0.00 0.00 0.00 0.00 0.00 0.00 0.00 0.00 0.00 0.00 0.00 0.00 0.00 0.00 0.00 0.00 0.00 0.00 0.00 0.00 0.00 0.00 0.00 0.00 0.00 0.00 0.00 0.00 0.00 0.00 0.00 0.00 0.00 0.00 0.00 0.00 0.00 0.00 0.00 0.00
MSLP
1015.42 1015.09 1014.86 1014.71 1014.54 1014.36 1014.25 1014.17 1013.97 1013.71 1013.61 1013.44 1013.20 1012.88 1012.65 1012.43 1011.85 1011.86 1010.76 1008.59 1008.48 1008.50 1009.06 1009.86 1010.01 1010.06 1010.47 1011.03 1011.60 1012.29 1013.52 1013.51 1013.07 1012.26 1010.84 1010.14 1009.41 1010.12 1010.07 1010.39 1010.96 1011.34 1012.01 1012.69 1013.58
1015.48 1015.14 1014.85 1014.64 1014.45 1014.27 1014.14 1014.00 1013.82 1013.60 1013.44 1013.24 1012.97 1012.71 1012.53 1012.39 1011.94 1010.53 1007.72 1007.77 1008.05 1008.34 1008.84 1009.21 1009.53 1009.76 1010.47 1011.03 1011.55 1012.14 1013.04 1012.72 1012.10 1011.63 1011.09 1010.44 1010.41 1010.11 1010.55 1010.69 1011.48 1012.08 1012.45 1013.01 1013.72
1015.43 1015.08 1014.74 1014.55 1014.37 1014.16 1013.99 1013.83 1013.69 1013.46 1013.24 1013.01 1012.74 1012.52 1012.39 1012.26 1011.42 1008.05 1006.70 1007.34 1007.83 1008.15 1008.34 1008.47 1008.84 1009.48 1010.42 1011.11 1011.56 1011.86 1011.86 1011.93 1011.82 1011.52 1011.44 1010.99 1010.32 1009.94 1010.56 1010.95 1010.97 1011.80 1012.77 1013.38 1014.01
1015.51 1015.10 1014.74 1014.46 1014.25 1014.02 1013.81 1013.61 1013.49 1013.32 1013.11 1012.83 1012.62 1012.40 1012.21 1011.99 1009.92 1006.76 1006.50 1007.03 1007.48 1008.02 1008.37 1008.46 1009.01 1009.80 1010.56 1011.28 1011.84 1012.27 1012.11 1011.39 1011.66 1011.65 1011.53 1011.27 1010.65 1010.06 1010.21 1010.05 1010.69 1011.81 1012.59 1013.27 1014.03
1015.42 1015.09 1014.71 1014.38 1014.13 1013.86 1013.60 1013.41 1013.27 1013.09 1012.91 1012.65 1012.52 1012.37 1012.11 1011.09 1008.56 1006.57 1006.52 1007.04 1007.69 1008.36 1008.38 1008.42 1008.89 1009.70 1010.60 1011.39 1011.72 1011.87 1012.32 1011.83 1011.89 1011.56 1011.70 1011.43 1010.78 1010.35 1010.28 1010.47 1011.27 1012.18 1012.81 1013.19 1013.68
1015.28 1014.92 1014.58 1014.19 1013.88 1013.66 1013.44 1013.26 1013.07 1012.87 1012.70 1012.54 1012.47 1012.34 1011.82 1009.83 1006.78 1006.64 1006.91 1007.46 1007.60 1008.11 1008.20 1008.09 1008.30 1009.20 1010.71 1011.44 1011.75 1011.81 1011.76 1012.36 1012.13 1012.27 1012.32 1012.10 1010.99 1010.20 1010.61 1010.77 1011.67 1012.38 1012.83 1013.32 1013.78
1015.21 1014.78 1014.43 1014.07 1013.66 1013.40 1013.18 1013.01 1012.83 1012.64 1012.50 1012.40 1012.35 1012.21 1011.19 1008.10 1006.74 1006.73 1007.03 1007.30 1007.57 1007.56 1007.91 1007.74 1008.14 1009.29 1010.75 1011.43 1011.68 1011.83 1012.17 1012.66 1012.90 1012.58 1012.60 1012.25 1011.04 1010.79 1010.78 1011.20 1011.65 1012.31 1012.73 1013.20 1013.62
1015.03 1014.57 1014.15 1013.85 1013.49 1013.16 1012.90 1012.65 1012.42 1012.26 1012.25 1012.29 1012.32 1012.02 1009.98 1007.15 1006.81 1006.98 1006.99 1007.01 1007.15 1007.38 1007.59 1007.50 1008.28 1009.71 1010.71 1011.42 1011.65 1011.74 1012.35 1012.61 1012.60 1012.68 1012.26 1012.15 1011.77 1011.02 1010.93 1011.37 1011.77 1012.38 1012.60 1012.91 1013.38
1014.72 1014.21 1013.80 1013.49 1013.22 1012.92 1012.63 1012.25 1011.94 1011.84 1012.07 1012.22 1012.27 1011.64 1008.91 1006.94 1006.97 1006.46 1006.57 1006.75 1006.78 1007.33 1007.74 1007.96 1008.61 1010.21 1011.05 1011.52 1011.82 1011.96 1012.07 1012.19 1012.09 1011.90 1011.93 1011.98 1011.29 1010.71 1010.82 1011.22 1011.67 1012.04 1012.40 1012.55 1013.18
1014.47 1013.88 1013.47 1013.19 1012.91 1012.66 1012.24 1011.93 1011.82 1011.86 1012.16 1012.16 1011.61 1011.22 1008.21 1006.44 1005.92 1005.98 1006.14 1006.59 1006.90 1007.03 1007.89 1008.25 1009.43 1010.40 1011.09 1011.31 1011.44 1011.47 1011.73 1011.44 1011.33 1011.21 1011.57 1011.64 1010.93 1010.63 1010.62 1010.92 1011.05 1011.52 1011.97 1012.37 1012.80
1014.17 1013.65 1013.15 1012.87 1012.66 1012.54 1012.27 1012.14 1012.25 1011.77 1011.21 1009.59 1008.89 1008.15 1006.75 1005.64 1005.11 1005.79 1006.00 1006.72 1007.14 1007.29 1007.92 1008.52 1009.48 1009.78 1010.02 1010.42 1010.38 1010.73 1011.11 1011.07 1010.57 1010.59 1011.20 1011.26 1011.15 1010.89 1010.45 1010.67 1010.96 1011.26 1011.75 1012.09 1012.36
1013.70 1013.26 1012.73 1012.43 1012.30 1012.28 1012.47 1011.33 1009.15 1008.39 1008.79 1007.79 1007.54 1007.06 1006.18 1005.76 1005.69 1005.55 1005.84 1006.90 1007.23 1007.73 1008.11 1008.69 1008.64 1007.98 1008.84 1009.38 1009.79 1010.23 1010.43 1010.50 1010.44 1010.44 1011.22 1011.47 1011.12 1010.68 1010.42 1010.26 1010.41 1010.69 1011.27 1011.55 1012.01
1013.29 1012.71 1012.23 1011.90 1011.80 1011.94 1011.31 1009.56 1007.82 1007.59 1008.19 1006.70 1006.29 1005.97 1005.36 1005.68 1005.55 1005.15 1005.69 1006.20 1006.87 1007.67 1008.07 1008.35 1007.05 1007.15 1008.08 1008.71 1009.16 1009.36 1009.54 1009.71 1010.27 1010.76 1011.57 1011.66 1011.22 1010.43 1010.11 1010.15 1010.20 1010.24 1010.49 1011.07 1011.37
1012.84 1012.18 1011.65 1011.43 1011.71 1010.88 1010.02 1008.10 1007.54 1007.90 1008.04 1006.31 1005.48 1004.45 1004.72 1004.75 1004.95 1004.47 1004.91 1005.68 1006.57 1007.13 1007.82 1007.82 1006.88 1007.17 1007.29 1007.43 1008.10 1008.59 1008.14 1009.09 1010.44 1011.42 1012.11 1011.97 1011.85 1010.30 1009.89 1009.79 1009.55 1009.78 1010.08 1010.54 1011.01
1012.26 1011.60 1011.19 1011.25 1010.86 1010.14 1008.21 1007.87 1007.44 1007.63 1007.26 1005.12 1004.44 1003.40 1003.85 1004.52 1004.34 1004.41 1004.52 1005.10 1005.98 1006.62 1007.27 1006.88 1006.63 1006.64 1006.63 1006.30 1007.10 1006.78 1007.75 1009.09 1010.74 1011.56 1012.12 1012.43 1012.56 1010.00 1009.69 1009.78 1008.83 1008.90 1009.42 1009.78 1010.01
1011.40 1010.96 1010.69 1010.75 1010.75 1008.16 1007.63 1007.45 1007.48 1008.10 1006.42 1004.47 1003.67 1003.71 1004.21 1004.30 1004.29 1004.41 1004.79 1004.92 1005.48 1006.34 1006.69 1006.35 1005.95 1005.84 1005.42 1005.54 1005.98 1006.96 1008.48 1010.14 1011.33 1012.20 1012.74 1011.78 1011.97 1009.46 1009.30 1008.24 1008.13 1008.40 1008.69 1009.11 1009.41
1010.21 1009.81 1010.12 1009.31 1008.45 1007.20 1007.42 1007.51 1008.40 1007.68 1006.02 1004.96 1004.20 1003.97 1004.11 1004.50 1004.62 1004.57 1005.10 1005.59 1006.15 1006.77 1007.18 1006.32 1005.58 1004.79 1004.57 1005.14 1005.91 1007.13 1008.68 1010.95 1012.40 1012.96 1012.54 1011.69 1011.52 1008.66 1007.34 1006.94 1006.79 1007.18 1007.64 1008.39 1008.82
1009.40 1008.71 1008.93 1008.42 1007.42 1007.22 1007.24 1008.10 1008.64 1007.40 1006.12 1005.06 1004.38 1004.21 1004.45 1004.58 1004.77 1004.96 1005.39 1005.90 1006.15 1006.69 1007.34 1006.78 1005.33 1004.17 1003.74 1004.20 1004.95 1006.50 1007.70 1009.20 1010.77 1012.01 1011.77 1011.45 1010.32 1007.67 1006.47 1005.60 1005.83 1006.31 1006.85 1007.81 1008.55
1008.86 1008.53 1008.59 1007.11 1007.19 1007.64 1007.92 1009.07 1008.34 1007.34 1006.11 1005.47 1004.64 1004.58 1004.73 1004.64 1004.85 1005.09 1005.56 1005.51 1005.41 1005.87 1006.64 1006.46 1005.37 1003.64 1003.14 1003.22 1004.09 1005.36 1006.52 1007.14 1009.27 1010.96 1011.30 1010.85 1009.24 1006.80 1006.25 1006.30 1006.22 1006.64 1007.16 1007.69 1008.33
1010.24 1009.19 1007.71 1006.66 1006.82 1007.44 1008.53 1009.17 1008.36 1007.05 1006.13 1005.61 1005.54 1005.07 1005.14 1004.88 1004.85 1004.91 1005.11 1004.47 1004.74 1004.73 1005.13 1005.64 1005.42 1003.66 1002.88 1002.78 1003.14 1003.95 1005.09 1007.10 1008.90 1010.48 1011.14 1010.59 1009.41 1007.35 1006.25 1006.50 1006.59 1006.83 1007.15 1007.42 1008.05
1010.24 1009.44 1007.87 1007.04 1006.94 1008.47 1009.67 1009.35 1008.07 1006.66 1006.18 1005.74 1005.59 1005.51 1005.30 1005.03 1004.83 1004.96 1004.71 1003.77 1003.45 1003.82 1004.70 1005.59 1005.87 1004.15 1003.63 1003.34 1003.23 1003.97 1005.08 1006.85 1008.38 1009.60 1010.41 1010.32 1009.03 1006.15 1005.63 1005.57 1006.02 1006.54 1006.79 1007.11 1007.47
1011.60 1010.31 1008.10 1007.40 1008.52 1010.21 1010.25 1009.31 1007.91 1006.75 1006.03 1005.66 1005.52 1005.46 1005.10 1004.95 1005.01 1004.86 1004.41 1003.45 1003.01 1003.15 1004.49 1004.32 1005.24 1005.23 1004.30 1003.09 1002.94 1003.19 1004.43 1006.02 1008.18 1009.84 1010.08 1009.64 1007.67 1005.89 1005.51 1005.28 1005.21 1006.00 1006.50 1006.80 1007.23
1013.26 1011.95 1008.65 1008.17 1010.44 1011.38 1010.72 1009.63 1008.42 1007.39 1006.61 1006.10 1005.95 1005.91 1005.57 1005.43 1005.40 1004.94 1004.22 1003.23 1003.33 1003.14 1003.22 1004.21 1004.92 1005.38 1004.62 1004.00 1003.21 1003.40 1004.20 1005.48 1006.79 1008.28 1009.29 1009.25 1007.34 1005.76 1005.45 1005.51 1005.33 1005.70 1006.37 1006.81 1007.36
1013.83 1013.32 1011.96 1011.40 1012.38 1012.57 1012.29 1010.96 1009.43 1008.06 1007.47 1007.16 1007.05 1006.54 1006.46 1006.48 1006.21 1005.95 1005.41 1004.07 1003.71 1003.49 1003.36 1003.55 1004.64 1004.73 1004.63 1004.02 1003.56 1003.87 1004.28 1005.07 1005.87 1007.75 1008.68 1008.09 1006.75 1005.89 1005.48 1005.50 1005.59 1005.77 1006.23 1006.87 1007.32
1014.88 1015.87 1015.52 1014.68 1014.00 1013.91 1013.15 1012.02 1010.82 1009.73 1008.53 1008.07 1007.76 1007.79 1007.61 1007.66 1007.37 1006.96 1006.56 1005.75 1004.42 1004.09 1003.94 1004.35 1004.96 1004.90 1004.01 1003.38 1003.29 1003.40 1004.04 1004.68 1005.16 1005.84 1006.61 1006.59 1006.52 1005.04 1005.06 1005.35 1005.26 1005.56 1006.17 1006.75 1007.23
1016.69 1017.00 1016.24 1015.86 1015.27 1014.62 1013.77 1013.08 1012.02 1010.97 1010.10 1009.24 1009.03 1008.43 1007.91 1007.83 1007.83 1007.82 1007.40 1006.89 1006.28 1005.33 1005.13 1004.94 1005.21 1005.01 1004.55 1003.78 1003.57 1003.43 1003.42 1003.60 1004.11 1004.83 1005.28 1005.39 1005.74 1004.65 1004.77 1005.55 1005.96 1005.91 1006.26 1006.99 1007.38
1017.77 1017.44 1017.22 1016.58 1016.04 1015.41 1014.94 1013.98 1012.82 1012.04 1010.51 1009.85 1009.47 1008.84 1008.38 1008.29 1008.20 1007.57 1007.28 1006.89 1006.73 1006.63 1006.36 1006.21 1005.98 1006.08 1005.70 1004.83 1004.31 1003.94 1003.07 1003.13 1003.55 1003.71 1004.09 1004.89 1004.39 1004.35 1004.49 1005.25 1005.71 1006.06 1006.02 1006.53 1007.02
Thickness
5756 5757 5758 5758 5759 5759 5758 5758 5760 5761 5762 5763 5765 5768 5769 5771 5775 5774 5775 5796 5798 5798 5790 5780 5778 5777 5775 5766 5767 5762 5723 5719 5726 5728 5744 5766 5765 5766 5767 5755 5759 5759 5750 5750 5747
5757 5759 5760 5760 5761 5761 5761 5761 5762 5763 5763 5764 5766 5768 5770 5770 5773 5778 5807 5806 5803 5798 5788 5778 5772 5777 5763 5762 5762 5747 5725 5729 5747 5748 5744 5754 5757 5762 5753 5751 5746 5744 5750 5750 5746
5759 5761 5762 5762 5762 5763 5763 5763 5763 5764 5765 5766 5767 5769 5769 5770 5773 5793 5816 5810 5804 5800 5796 5792 5788 5778 5760 5760 5757 5751 5739 5746 5750 5749 5749 5751 5758 5769 5753 5740 5751 5744 5742 5744 5741
5759 5761 5762 5763 5763 5764 5764 5764 5764 5764 5765 5766 5767 5768 5769 5770 5760 5808 5816 5811 5806 5800 5794 5788 5779 5764 5753 5746 5754 5739 5750 5754 5750 5752 5750 5748 5759 5762 5760 5759 5764 5755 5749 5746 5740
5759 5760 5761 5762 5763 5764 5765 5765 5765 5766 5766 5767 5767 5767 5768 5768 5778 5813 5814 5809 5803 5793 5789 5786 5776 5765 5750 5751 5751 5746 5741 5749 5747 5749 5749 5753 5754 5758 5758 5763 5761 5753 5748 5745 5742
5759 5759 5760 5761 5762 5763 5764 5765 5766 5767 5767 5766 5765 5766 5768 5761 5810 5811 5809 5803 5798 5792 5790 5792 5783 5777 5756 5752 5747 5751 5752 5742 5745 5738 5738 5735 5749 5761 5756 5763 5755 5750 5747 5743 5742
5756 5757 5758 5760 5762 5764 5765 5767 5768 5768 5768 5767 5765 5767 5766 5776 5809 5809 5806 5799 5797 5797 5788 5797 5793 5774 5761 5751 5758 5751 5738 5737 5732 5735 5732 5740 5744 5741 5756 5757 5753 5748 5748 5744 5743
5755 5757 5759 5760 5762 5765 5767 5769 5770 5770 5769 5767 5765 5765 5765 5805 5807 5805 5804 5799 5801 5802 5799 5802 5793 5772 5763 5759 5753 5746 5741 5723 5736 5735 5738 5737 5717 5747 5759 5754 5749 5748 5751 5749 5746
5758 5760 5762 5763 5764 5766 5768 5771 5773 5772 5769 5767 5765 5765 5767 5805 5795 5806 5805 5794 5798 5797 5796 5797 5784 5762 5759 5740 5730 5735 5722 5727 5731 5744 5742 5734 5728 5749 5760 5755 5749 5752 5753 5754 5747
5759 5762 5764 5765 5766 5768 5771 5773 5772 5771 5767 5766 5769 5759 5784 5788 5803 5806 5808 5799 5789 5790 5780 5775 5757 5744 5739 5732 5716 5727 5722 5734 5732 5744 5741 5732 5737 5749 5759 5757 5755 5757 5756 5754 5749
5760 5763 5766 5767 5768 5768 5770 5771 5768 5766 5769 5777 5781 5781 5792 5807 5814 5801 5803 5789 5786 5779 5756 5764 5745 5734 5743 5745 5753 5742 5735 5735 5749 5756 5744 5740 5737 5744 5756 5758 5754 5756 5755 5755 5752
5763 5766 5769 5770 5771 5770 5768 5777 5788 5793 5772 5790 5790 5789 5799 5803 5784 5794 5802 5773 5768 5750 5760 5751 5735 5767 5764 5755 5751 5745 5740 5739 5750 5757 5745 5738 5734 5747 5755 5757 5759 5758 5757 5757 5757
5764 5769 5772 5774 5774 5772 5775 5787 5804 5801 5766 5785 5792 5791 5796 5797 5782 5786 5793 5779 5766 5752 5750 5739 5764 5780 5766 5753 5746 5746 5742 5746 5742 5748 5741 5737 5728 5743 5756 5759 5760 5761 5762 5760 5759
5766 5771 5775 5777 5776 5781 5783 5800 5803 5798 5745 5771 5786 5798 5799 5799 5783 5807 5802 5784 5767 5751 5751 5750 5772 5767 5762 5757 5755 5737 5768 5763 5743 5729 5715 5737 5702 5737 5748 5753 5762 5762 5760 5759 5761
5769 5774 5777 5777 5780 5782 5799 5800 5802 5791 5728 5789 5787 5821 5805 5787 5791 5792 5806 5789 5761 5760 5757 5752 5765 5760 5760 5766 5767 5758 5772 5758 5739 5724 5725 5725 5709 5738 5746 5745 5762 5767 5766 5767 5768
5773 5777 5780 5779 5776 5797 5801 5801 5793 5741 5731 5779 5795 5786 5784 5788 5789 5791 5786 5796 5787 5764 5763 5761 5781 5777 5772 5782 5779 5775 5755 5738 5727 5718 5700 5728 5720 5737 5739 5757 5765 5770 5772 5773 5772
5781 5784 5782 5788 5794 5802 5799 5789 5738 5719 5775 5770 5778 5785 5777 5772 5776 5778 5768 5762 5747 5735 5735 5755 5768 5783 5789 5771 5771 5758 5735 5692 5691 5692 5697 5725 5718 5752 5775 5779 5779 5776 5777 5776 5775
5785 5791 5788 5793 5799 5800 5793 5760 5727 5750 5756 5780 5782 5778 5764 5770 5771 5770 5758 5750 5758 5752 5727 5727 5736 5780 5794 5779 5765 5748 5741 5707 5692 5687 5711 5727 5716 5749 5787 5797 5795 5790 5787 5781 5774
5786 5789 5786 5798 5798 5792 5772 5725 5731 5742 5768 5763 5768 5763 5761 5770 5770 5765 5751 5757 5765 5759 5737 5723 5737 5787 5795 5795 5785 5766 5749 5767 5722 5720 5709 5715 5739 5775 5785 5780 5784 5780 5780 5777 5775
5769 5777 5786 5798 5796 5784 5749 5728 5741 5757 5766 5765 5746 5760 5751 5758 5757 5756 5756 5772 5766 5771 5774 5761 5740 5779 5794 5801 5796 5779 5779 5742 5722 5714 5708 5711 5721 5737 5776 5775 5777 5779 5775 5778 5776
5768 5769 5783 5790 5790 5759 5729 5728 5747 5765 5767 5759 5748 5745 5745 5750 5754 5742 5752 5776 5784 5781 5768 5755 5743 5764 5785 5774 5769 5768 5756 5740 5737 5722 5701 5697 5718 5767 5777 5786 5783 5783 5783 5780 5781
5750 5749 5777 5783 5745 5723 5728 5744 5757 5759 5768 5761 5760 5751 5749 5752 5748 5748 5750 5771 5789 5785 5755 5766 5739 5730 5750 5785 5792 5785 5768 5749 5721 5719 5711 5707 5721 5779 5781 5786 5792 5785 5785 5785 5782
5732 5734 5770 5771 5719 5718 5727 5738 5752 5751 5751 5755 5750 5753 5758 5751 5744 5747 5756 5782 5780 5781 5771 5763 5735 5720 5739 5756 5778 5775 5770 5754 5738 5722 5709 5703 5722 5777 5780 5781 5787 5783 5781 5780 5780
5728 5722 5732 5734 5721 5718 5711 5721 5729 5749 5745 5744 5741 5743 5737 5728 5733 5732 5736 5767 5771 5774 5776 5772 5732 5736 5727 5742 5760 5756 5762 5756 5746 5717 5710 5714 5745 5767 5773 5774 5778 5780 5780 5777 5777
5713 5699 5700 5696 5707 5702 5707 5712 5716 5714 5731 5729 5724 5723 5718 5708 5711 5714 5726 5735 5758 5760 5764 5754 5736 5733 5747 5760 5763 5765 5753 5751 5753 5744 5733 5741 5737 5766 5768 5770 5780 5784 5779 5775 5773
5696 5688 5688 5687 5688 5695 5692 5696 5701 5706 5709 5707 5702 5711 5718 5709 5711 5704 5713 5716 5723 5740 5739 5742 5731 5738 5742 5756 5756 5754 5758 5759 5757 5745 5750 5749 5741 5772 5771 5770 5771 5775 5773 5767 5767
5681 5683 5680 5681 5681 5682 5677 5680 5686 5690 5700 5706 5700 5698 5698 5699 5703 5710 5711 5716 5717 5721 5719 5718 5719 5711 5710 5731 5735 5721 5746 5750 5753 5752 5751 5731 5755 5763 5765 5763 5764 5767 5773 5769 5768